Regional Weather Roundup
Issued by NWS Charleston, WV

Home | Current Version | Previous Version | Text Only | Print | Product List | Glossary On
Versions: 1 2 3 4 5 6 7 8 9 10 11 12 13 14 15 16 17 18 19 20 21 22 23 24 25 26 27 28 29 30 31 32 33 34 35 36 37 38 39 40 41 42 43 44 45 46 47 48 49 50
000
ASUS41 KRLX 281310
RWRRLX
West Virginia Regional Weather Roundup
National Weather Service Charleston WV
800 AM EST SUN DEC 28 2014

Note: "fair" indicates few or no clouds below 12,000 feet with no
significant weather and/or obstructions to visibility.

WVZ003-281400-
Northern Panhandle of West Virginia

CITY           SKY/WX    TMP DP  RH WIND       PRES   REMARKS
WHEELING       CLOUDY    40  37  89 NW12G20   30.02R
$$

WVZ009-281400-
Northwest West Virginia

CITY           SKY/WX    TMP DP  RH WIND       PRES   REMARKS
PARKERSBURG    LGT RAIN  43  40  89 NW9       30.07R FOG
$$

WVZ006-281400-
Western West Virginia

CITY           SKY/WX    TMP DP  RH WIND       PRES   REMARKS
HUNTINGTON     CLOUDY    47  47 100 S3        30.04R
$$

WVZ015-281400-
West Central West Virginia

CITY           SKY/WX    TMP DP  RH WIND       PRES   REMARKS
CHARLESTON     CLOUDY    48  46  93 S6        30.03F
$$

WVZ022-031-281400-
North Central West Virginia

CITY           SKY/WX    TMP DP  RH WIND       PRES   REMARKS
CLARKSBURG     LGT RAIN  46  45  96 SW8       30.02R
MORGANTOWN     CLOUDY    46  42  86 SW6       30.01S
$$

WVZ025-035-042-045-281400-
Southern West Virginia

CITY           SKY/WX    TMP DP  RH WIND       PRES   REMARKS
BECKLEY        LGT RAIN  44  42  93 CALM      30.04R FOG
LOGAN          FOG       45  45 100 CALM      30.03F VSB 1/4
BLUEFIELD      LGT RAIN  47  44  90 SW7       30.04R FOG
LEWISBURG      LGT RAIN  48  43  81 W5        30.03R
$$

WVZ047-281400-
Northern Mountains of West Virginia

CITY           SKY/WX    TMP DP  RH WIND       PRES   REMARKS
ELKINS         LGT RAIN  46  45  96 CALM      30.02R
$$

WVZ052-281400-
Eastern Panhandle of West Virginia

CITY           SKY/WX    TMP DP  RH WIND       PRES   REMARKS
MARTINSBURG    CLOUDY    48  31  51 CALM      29.95R
PETERSBURG     CLOUDY    56  40  55 S6        29.96R
$$


USA.gov is the U.S. government's official web portal to all federal, state and local government web resources and services.